This demonstration page uses our WeatherBlox Daily Observations layout. Learn more.

Left ArrowRight Arrow

39.51506, -84.39828

Hourly Observations for February 21, 2020

Temp ( °F °C ) Dew Point ( °F °C ) Humidity (%) Winds ( mph kmh ) Pressure ( in mb ) Visibility ( mi km ) Precip ( " mm )
12:15 am 00:15 Clear 17 -8.5 13 -10.6 85 85 Calm 30.69 1039 10 16.0934 0 0
12:35 am 00:35 Clear 17 -8.6 13 -10.5 86 86 Calm 30.69 1039 10 16.0934 0 0
12:55 am 00:55 Clear 16 -8.7 13 -10.8 85 85 Calm 30.69 1039 10 16.0934 0 0
1:15 am 01:15 Clear 16 -8.7 12 -11.2 82 82 Calm 30.69 1039 10 16.0934 0 0
1:35 am 01:35 Clear 17 -8.5 12 -11 82 82 NNW 3 6 30.69 1039 10 16.0934 0 0
1:55 am 01:55 Clear 16 -8.9 12 -11.1 84 84 NNW 5 7 30.69 1039 10 16.0934 0 0
2:15 am 02:15 Clear 17 -8.6 12 -11.1 82 82 NNW 3 6 30.69 1039 10 16.0934 0 0
2:35 am 02:35 Clear 16 -8.7 13 -10.8 85 85 NNW 6 9 30.69 1039 10 16.0934 0 0
2:55 am 02:55 Clear 18 -7.9 12 -11.1 78 78 NNW 6 9 30.69 1039 10 16.0934 0 0
3:15 am 03:15 Clear 17 -8.5 12 -11.2 81 81 NNW 5 7 30.69 1039 10 16.0934 0 0
3:35 am 03:35 Clear 17 -8.6 11 -11.4 80 80 Calm 30.68 1039 10 16.0934 0 0
3:55 am 03:55 Clear 16 -9 11 -11.4 83 83 N 3 6 30.68 1039 10 16.0934 0 0
4:15 am 04:15 Clear 17 -8.5 12 -11.1 82 82 NNW 5 7 30.68 1039 10 16.0934 0 0
4:35 am 04:35 Clear 17 -8.3 12 -11.1 80 80 NNW 5 7 30.68 1039 10 16.0934 0 0
4:55 am 04:55 Clear 16 -8.7 11 -11.4 81 81 N 3 6 30.69 1039 10 16.0934 0 0
5:15 am 05:15 Clear 15 -9.5 11 -11.8 84 84 Calm 30.69 1039 10 16.0934 0 0
5:35 am 05:35 Clear 16 -8.8 12 -11.2 83 83 NE 3 6 30.69 1039 10 16.0934 0 0
5:55 am 05:55 Clear 17 -8.5 12 -11 82 82 Calm 30.7 1040 10 16.0934 0 0
6:15 am 06:15 Clear 17 -8.5 12 -10.9 83 83 NNE 3 6 30.7 1040 10 16.0934 0 0
6:35 am 06:35 Clear 16 -8.8 12 -10.9 85 85 Calm 30.7 1040 10 16.0934 0 0
6:55 am 06:55 Clear 14 -10.1 11 -11.4 90 90 Calm 30.7 1040 10 16.0934 0 0
7:15 am 07:15 Clear 13 -10.8 11 -11.9 92 92 Calm 30.72 1040 10 16.0934 0 0
7:35 am 07:35 Sunny 12 -10.9 11 -11.8 93 93 Calm 30.72 1040 10 16.0934 0 0
7:55 am 07:55 Sunny 13 -10.3 12 -11.2 93 93 Calm 30.73 1040 10 16.0934 0 0
8:15 am 08:15 Sunny 15 -9.3 13 -10.3 93 93 Calm 30.73 1041 10 16.0934 0 0
8:35 am 08:35 Sunny 17 -8.1 14 -10 86 86 Calm 30.73 1041 10 16.0934 0 0
8:55 am 08:55 Sunny 19 -7 14 -10.1 79 79 Calm 30.74 1041 10 16.0934 0 0
9:15 am 09:15 Sunny 21 -6.3 14 -10 75 75 Calm 30.73 1041 10 16.0934 0 0
9:35 am 09:35 Sunny 22 -5.8 14 -9.8 74 74 Calm 30.73 1041 10 16.0934 0 0
9:55 am 09:55 Sunny 22 -5.6 14 -10.2 70 70 Calm 30.73 1041 10 16.0934 0 0
10:15 am 10:15 Sunny 24 -4.7 13 -10.5 64 64 SW 5 7 30.73 1041 10 16.0934 0 0
10:35 am 10:35 Sunny 25 -4.1 13 -10.5 61 61 S 5 7 30.73 1041 10 16.0934 0 0
10:55 am 10:55 Sunny 25 -3.8 12 -11.3 56 56 S 8 13 30.73 1041 10 16.0934 0 0
11:15 am 11:15 Sunny 27 -3 12 -11 54 54 SSW 7 11 30.72 1040 10 16.0934 0 0
11:35 am 11:35 Sunny 28 -2.4 10 -12.3 47 47 S 7 11 30.71 1040 10 16.0934 0 0
11:55 am 11:55 Sunny 28 -2.1 8 -13.1 43 43 S 6 9 30.71 1040 10 16.0934 0 0
12:15 pm 12:15 Sunny 29 -1.6 10 -12.3 44 44 S 6 9 30.7 1040 10 16.0934 0 0
12:35 pm 12:35 Sunny 30 -1.2 10 -12.4 43 43 SSE 5 7 30.7 1040 10 16.0934 0 0
12:55 pm 12:55 Sunny 31 -0.8 11 -11.9 43 43 SW 9 15 30.68 1039 10 16.0934 0 0
1:15 pm 13:15 Sunny 32 0.2 10 -12.3 39 39 SSW 12 19 30.67 1038 10 16.0934 0 0
1:35 pm 13:35 Sunny 32 0.2 7 -13.9 34 34 WSW 10 17 30.65 1038 10 16.0934 0 0
1:55 pm 13:55 Sunny 33 0.8 8 -13.5 34 34 WSW 7 11 30.63 1037 10 16.0934 0 0
2:15 pm 14:15 Sunny 34 1.3 7 -13.9 32 32 W 8 13 30.62 1037 10 16.0934 0 0
2:35 pm 14:35 Sunny 35 1.4 8 -13.3 33 33 SSW 9 15 30.61 1037 10 16.0934 0 0
2:55 pm 14:55 Sunny 35 1.6 8 -13.1 33 33 W 9 15 30.6 1036 10 16.0934 0 0
3:15 pm 15:15 Sunny 36 2.1 8 -13.3 31 31 W 5 7 30.6 1036 10 16.0934 0 0
3:35 pm 15:35 Sunny 36 2.3 7 -13.7 30 30 SSW 10 17 30.59 1036 10 16.0934 0 0
3:55 pm 15:55 Sunny 37 2.5 7 -13.7 29 29 WSW 12 19 30.58 1036 10 16.0934 0 0
4:15 pm 16:15 Sunny 36 2.4 8 -13.5 30 30 WSW 10 17 30.58 1036 10 16.0934 0 0
4:35 pm 16:35 Sunny 37 2.7 8 -13.1 30 30 WSW 8 13 30.58 1035 10 16.0934 0 0
4:55 pm 16:55 Sunny 37 2.7 9 -12.9 31 31 W 9 15 30.57 1035 10 16.0934 0 0
5:15 pm 17:15 Sunny 36 2.4 9 -12.8 32 32 WSW 9 15 30.57 1035 10 16.0934 0 0
5:35 pm 17:35 Sunny 36 2.1 9 -12.9 32 32 WSW 8 13 30.57 1035 10 16.0934 0 0
5:55 pm 17:55 Sunny 35 1.5 8 -13.4 32 32 WSW 8 13 30.56 1035 10 16.0934 0 0
6:15 pm 18:15 Sunny 33 0.3 8 -13.3 36 36 SW 7 11 30.55 1035 10 16.0934 0 0
6:35 pm 18:35 Clear 31 -0.5 8 -13.1 38 38 SW 6 9 30.56 1035 10 16.0934 0 0
6:55 pm 18:55 Clear 31 -0.8 8 -13.1 39 39 WSW 6 9 30.57 1035 10 16.0934 0 0
7:15 pm 19:15 Clear 29 -1.5 10 -12.4 44 44 WSW 6 9 30.57 1035 10 16.0934 0 0
7:35 pm 19:35 Clear 30 -1.1 10 -12.1 43 43 SW 5 7 30.56 1035 10 16.0934 0 0
7:55 pm 19:55 Clear 30 -1 10 -12.4 42 42 SW 6 9 30.56 1035 10 16.0934 0 0
8:15 pm 20:15 Clear 30 -1.3 10 -12.5 43 43 SSW 6 9 30.56 1035 10 16.0934 0 0
8:35 pm 20:35 Clear 27 -2.9 11 -11.9 50 50 SSW 7 11 30.55 1035 10 16.0934 0 0
8:55 pm 20:55 Clear 29 -1.9 13 -10.4 53 53 SW 7 11 30.54 1034 10 16.0934 0 0
9:15 pm 21:15 Clear 26 -3.5 14 -9.9 62 62 SW 5 7 30.55 1034 10 16.0934 0 0
9:35 pm 21:35 Clear 22 -5.8 15 -9.3 77 77 SSW 6 9 30.54 1034 10 16.0934 0 0
9:55 pm 21:55 Clear 25 -4 14 -9.9 64 64 SW 5 7 30.54 1034 10 16.0934 0 0
10:15 pm 22:15 Clear 23 -5 15 -9.5 71 71 SW 6 9 30.53 1034 10 16.0934 0 0
10:35 pm 22:35 Clear 22 -5.7 12 -11 67 67 SW 7 11 30.53 1034 10 16.0934 0 0
10:55 pm 22:55 Clear 24 -4.7 13 -10.4 65 65 SSW 6 9 30.53 1034 10 16.0934 0 0
11:15 pm 23:15 Clear 24 -4.4 12 -11.3 59 59 SW 7 11 30.52 1033 10 16.0934 0 0
11:35 pm 23:35 Clear 25 -4 13 -10.5 61 61 SSW 5 7 30.52 1033 10 16.0934 0 0
11:55 pm 23:55 Clear 26 -3.5 11 -11.4 55 55 SSW 6 9 30.51 1033 10 16.0934 0 0

Powered by AerisWeather